Location: Aubrey
(33.1990°N, 85.1361°W)
Time: 17:58:14
(UTC+00:00)

Nauka - Pass Details

Date: 18 September 2021
Orbit: 417 x 423 km, 51.6° (Epoch: 24 October)

Event Time Altitude Azimuth Distance (km) Brightness Sun altitude
Rises 00:04:15 0° 224° (SW) 2,344 ? -5.1°
Reaches altitude 10° 00:06:20 10° 224° (SW) 1,485 ? -5.6°
Maximum altitude 00:09:40 87° 134° (SE) 421 ? -6.3°
Drops below altitude 10° 00:13:01 10° 47° (NE) 1,496 ? -7.0°
Sets 00:15:08 0° 47° (NE) 2,364 ? -7.4°
Enters shadow 00:15:11 - 47° (NE) 2,388 ? -7.4°
